www.pogodaiklimat.ru

Погода и климат >> Архив погоды >> Австралия >> Западная Австралия >> Озеро Грейс


ПОГОДА на Озере Грейс

  • Прогноз погоды на Озере Грейс
  • Монитор погоды на Озере Грейс

АРХИВ ПОГОДЫ на Озере Грейс

Время (UTC), дата Ветер
(напр.,м/с)
 
Видим.   Явления Облачность Т
(С)
Тd
(С)
f
(%)
Тe
(С)
Тes
(С)
Комфортность P
(гПа)
Po
(гПа)
Тmin
(С)
Tmax
(С)
R
(мм)
R24
(мм)
S
(см)
22 13.06 С 2 н/о н/о +5.1 +5.0 99 +2 +2 1022.6 988.3
00 14.06 С 4 н/о н/о +5.6 +5.5 99 +1 +1 1023.5 989.2
01 14.06 С 4 н/о н/о +7.5 +7.4 99 +4 +4 1024.1 989.8 +4.6
03 14.06 С 3 н/о н/о +12.6 +9.6 82 +11 +11 1023.1 988.8
04 14.06 СЗ 5 н/о н/о +14.1 +9.9 76 +13 +13 1022.0 987.7
06 14.06 СЗ 6 н/о н/о +14.3 +9.7 74 +13 +13 1020.9 986.7
07 14.06 СЗ 5 н/о н/о +15.0 +10.6 75 +14 +14 1020.9 986.7
09 14.06 СЗ 3 н/о н/о +13.9 +10.5 80 +13 +13 1020.9 986.7
10 14.06 СЗ 3 н/о н/о +12.7 +9.9 83 +11 +11 1021.5 987.3
12 14.06 СЗ 2 н/о н/о +10.8 +9.6 92 +9 +9 1022.0 987.7
13 14.06 СЗ 3 н/о н/о +9.9 +9.1 95 +8 +8 1022.3 988.0 +15.9
15 14.06 З 3 н/о н/о +9.2 +7.2 87 +7 +7 1022.3 988.0
16 14.06 З 3 н/о {туман} н/о +8.1 +6.9 92 +6 +6 1022.3 988.0
18 14.06 С 2 н/о н/о +7.5 +6.4 93 +5 +5 1022.4 988.1
19 14.06 С 2 н/о {туман} н/о +6.8 +6.1 95 +5 +5 1022.5 988.2
21 14.06 З 2 н/о н/о +7.1 +7.0 99 +5 +5 1023.0 988.7
22 14.06 З 3 н/о н/о +9.2 +8.9 98 +7 +7 1023.4 989.1
00 15.06 З 3 н/о н/о +8.8 +8.7 99 +6 +6 1024.7 990.4
01 15.06 З 3 н/о н/о +8.9 +8.8 99 +6 +6 1025.7 991.3 +5.7
03 15.06 З 3 н/о н/о +13.1 +8.6 74 +12 +12 1025.4 991.0
04 15.06 З 4 н/о н/о +14.3 +6.6 60 +13 +13 1024.8 990.5
06 15.06 ЮЗ 4 н/о н/о +14.8 +7.1 60 +14 +14 1023.9 989.6
07 15.06 З 5 н/о в посл. час дождь {туман} н/о +14.8 +6.4 57 +13 +13 1024.4 990.1
09 15.06 З 3 н/о н/о +14.1 +6.7 61 +13 +13 1024.6 990.3
10 15.06 З 1 н/о н/о +13.6 +6.9 64 +14 +14 1025.0 990.6
12 15.06 С 1 н/о н/о +11.7 +8.4 80 +12 +12 1025.5 991.1
13 15.06 С 2 н/о н/о +11.4 +8.6 83 +11 +11 1025.4 991.0 +16.1
15 15.06 СЗ 2 н/о н/о +11.1 +8.5 84 +10 +10 1025.4 991.0
16 15.06 З 2 н/о н/о +11.6 +8.3 80 +10 +10 1025.4 991.0
18 15.06 З 2 н/о н/о +11.3 +8.0 80 +10 +10 1025.2 990.8
19 15.06 С 2 н/о н/о +10.5 +8.4 87 +9 +9 1025.0 990.6
21 15.06 С 2 н/о н/о +8.5 +7.0 90 +7 +7 1024.2 989.9
22 15.06 С 2 н/о н/о +8.2 +7.4 95 +6 +6 1024.6 990.3
00 16.06 С 2 н/о н/о +9.5 +7.3 86 +8 +8 1025.7 991.3
01 16.06 СЗ 3 н/о н/о +12.1 +7.4 73 +11 +11 1026.4 992.0 +7.6
03 16.06 З 4 н/о н/о +13.7 +6.6 62 +12 +12 1026.2 991.8
04 16.06 СЗ 5 н/о н/о +15.3 +7.3 59 +14 +14 1025.3 990.9
06 16.06 СЗ 5 н/о н/о +14.8 +8.1 64 +14 +14 1024.1 989.8
07 16.06 З 5 н/о н/о +14.4 +9.4 72 +13 +13 1024.4 990.1
09 16.06 штиль 0 н/о н/о +13.8 +10.0 78 +13 +13 1024.4 990.1
10 16.06 З 3 н/о н/о +13.7 +10.1 79 +13 +13 1025.0 990.6
12 16.06 З 1 н/о н/о +11.3 +9.6 89 +12 +12 1025.9 991.5
13 16.06 З 2 н/о н/о +11.7 +10.3 91 +11 +11 1026.1 991.7 +15.9
15 16.06 З 1 н/о н/о +9.6 +9.1 97 +10 +10 1026.4 992.0
16 16.06 ЮЗ 3 н/о туман местами н/о +10.5 +10.3 99 +8 +8 1026.6 992.2
18 16.06 Ю 2 н/о н/о +10.3 +9.7 96 +9 +9 1027.3 992.9
19 16.06 Ю 2 н/о {туман} н/о +9.2 +8.6 96 +8 +8 1027.5 993.1
21 16.06 Ю 1 н/о н/о +7.2 +6.5 95 +6 +6 1028.4 993.9
22 16.06 штиль 0 н/о н/о +6.0 +5.6 97 +5 +5 1028.9 994.4
00 17.06 штиль 0 н/о н/о +6.0 +5.9 99 +5 +5 1030.0 995.5
01 17.06 ЮЗ 2 н/о н/о +7.8 +6.9 94 +6 +6 1030.9 996.3 +4.7
03 17.06 Ю 4 н/о н/о +12.2 +4.2 58 +10 +10 1030.9 996.3
04 17.06 ЮВ 3 н/о н/о +13.2 +3.0 50 +12 +12 1030.1 995.6
06 17.06 ЮВ 3 н/о н/о +13.6 +2.5 47 +13 +13 1028.8 994.3
07 17.06 ЮВ 3 н/о н/о +14.2 +2.8 46 +13 +13 1028.9 994.4
09 17.06 Ю 3 н/о н/о +12.0 +3.0 54 +11 +11 1029.0 994.5
10 17.06 ЮВ 2 н/о в посл. час дождь {туман} н/о +9.9 +3.4 64 +9 +9 1029.1 994.6
12 17.06 ЮВ 2 н/о н/о +8.3 +3.6 72 +7 +7 1029.8 995.3
13 17.06 ЮВ 3 н/о {туман} н/о +8.1 +4.3 77 +6 +6 1029.9 995.4 +14.5
15 17.06 штиль 0 н/о н/о +5.9 +4.4 90 +5 +5 1029.7 995.2
16 17.06 штиль 0 н/о н/о +4.8 +3.9 94 +4 +4 1029.2 994.7
18 17.06 штиль 0 н/о н/о +4.0 +3.3 95 +3 +3 1028.5 994.0
19 17.06 штиль 0 н/о н/о +3.1 +2.4 95 +2 +2 1028.3 993.8
21 17.06 штиль 0 н/о н/о +2.1 +1.7 97 +1 +1 1027.7 993.3
22 17.06 штиль 0 н/о н/о +1.7 +1.3 97 0 0 1028.4 993.9
00 18.06 штиль 0 н/о н/о +4.3 +4.0 98 +3 +3 1029.2 994.7
01 18.06 СЗ 2 н/о н/о +5.8 +5.1 95 +4 +4 1029.5 995.0 +1.7
03 18.06 СЗ 4 н/о н/о +10.1 +5.1 71 +8 +8 1028.6 994.1
04 18.06 С 4 н/о н/о +11.6 +4.6 62 +10 +10 1027.2 992.8
06 18.06 З 3 н/о н/о +14.1 +4.1 51 +13 +13 1025.3 990.9
07 18.06 З 3 н/о н/о +13.9 +2.8 47 +13 +13 1025.1 990.7
09 18.06 Ю 1 н/о н/о +12.3 +3.3 54 +13 +13 1025.2 990.8
10 18.06 штиль 0 н/о н/о +9.3 +3.5 67 +9 +9 1025.4 991.0
12 18.06 штиль 0 н/о н/о +6.0 +2.8 80 +5 +5 1026.0 991.6
13 18.06 штиль 0 н/о н/о +4.9 +2.8 86 +4 +4 1025.9 991.5 +14.7
15 18.06 ЮЗ 1 н/о н/о +3.7 +1.7 87 +2 +2 1026.0 991.6
16 18.06 штиль 0 н/о н/о +3.0 +1.4 89 +2 +2 1025.7 991.3
18 18.06 С 2 н/о н/о +2.0 +1.0 93 -1 -1 1025.6 991.2
19 18.06 штиль 0 н/о н/о +1.5 +0.5 93 0 0 1025.7 991.3
21 18.06 штиль 0 н/о н/о +1.0 +0.1 94 -0 -0 1025.3 990.9
22 18.06 штиль 0 н/о н/о +0.9 +0.2 95 -0 -0 1025.2 990.8
00 19.06 С 2 н/о н/о +2.8 +2.1 95 0 0 1025.6 991.2
01 19.06 штиль 0 н/о н/о +5.9 +3.2 83 +5 +5 1026.2 991.8 +0.1
03 19.06 С 3 н/о н/о +12.0 +3.8 57 +11 +11 1025.6 991.2
04 19.06 С 3 н/о н/о +13.5 +3.0 49 +13 +13 1024.8 990.5
06 19.06 СЗ 3 н/о н/о +14.9 +2.8 44 +15 +15 1023.4 989.1
07 19.06 СВ 2 н/о н/о +15.2 +2.1 41 +15 +15 1023.1 988.8
09 19.06 С 1 н/о н/о +12.5 +2.7 51 +13 +13 1023.3 989.0
10 19.06 штиль 0 н/о н/о +9.5 +2.6 62 +9 +9 1023.5 989.2
12 19.06 ЮВ 2 н/о н/о +6.8 +2.1 72 +5 +5 1024.1 989.8
13 19.06 ЮВ 2 н/о н/о +6.1 +1.8 74 +4 +4 1024.2 989.9 +15.9
15 19.06 В 3 н/о н/о +8.6 +2.0 63 +6 +6 1023.8 989.5
16 19.06 В 3 н/о н/о +8.0 +1.6 64 +6 +6 1023.6 989.3
18 19.06 В 3 н/о н/о +6.3 +0.8 68 +3 +3 1024.0 989.7
19 19.06 В 3 н/о н/о +5.0 +0.8 74 +2 +2 1024.2 989.9
21 19.06 штиль 0 н/о н/о +1.6 -0.6 85 +1 +1 1023.9 989.6
22 19.06 штиль 0 н/о н/о +0.9 -0.9 88 -0 -0 1023.7 989.4
00 20.06 В 2 н/о н/о +6.3 +0.6 67 +4 +4 1024.6 990.3
01 20.06 СВ 3 н/о н/о +8.5 +0.5 57 +6 +6 1024.1 989.8 +0.8
03 20.06 СВ 4 н/о н/о +12.4 +0.5 44 +11 +11 1023.3 989.0
04 20.06 СВ 4 н/о н/о +15.0 +0.1 36 +14 +14 1022.4 988.1
06 20.06 В 4 н/о н/о +16.1 +0.7 35 +15 +15 1020.8 986.6
07 20.06 В 5 н/о н/о +15.9 +0.5 35 +15 +15 1020.7 986.5
09 20.06 В 3 н/о н/о +13.9 +1.2 42 +13 +13 1020.3 986.1
10 20.06 В 4 н/о н/о +12.9 +1.0 44 +11 +11 1020.3 986.1
12 20.06 В 4 н/о н/о +11.4 +0.5 47 +10 +10 1020.7 986.5
13 20.06 В 5 н/о н/о +11.2 +0.3 47 +9 +9 1020.9 986.7 +16.8
15 20.06 В 5 н/о н/о +10.6 +0.1 48 +8 +8 1020.2 986.0
16 20.06 В 6 н/о н/о +10.9 0.0 47 +8 +8 1019.2 985.0
18 20.06 СВ 6 н/о н/о +11.3 +0.4 47 +9 +9 1017.8 983.7
19 20.06 СВ 5 н/о н/о +12.0 +0.8 46 +10 +10 1017.5 983.4
21 20.06 СВ 3 н/о н/о +11.5 +1.2 49 +10 +10 1017.0 982.9
22 20.06 СВ 2 н/о н/о +10.5 +1.1 52 +9 +9 1017.3 983.2

 

Местоположение метеостанции Озеро Грейс (Западная Австралия, Австралия): широта -33.10 долгота 118.46 высота над уровнем моря 286 м.

В архиве по умолчанию представлена погода на Озере Грейс за последнюю неделю. Архивные данные за месяц целиком и за предыдущие месяцы, начиная с января 2011 года, Вы можете получить, выбрав интересующий диапазон дат из раскрывающегося списка и нажав кнопку "Ввод!".


*Определитесь, кто Вы:
робот инопланетянин человек

Внимание! Время в таблицах - всемирное. Для получения местного времени необходимо прибавить поправку, которая равна 8 ч.

Смотрите также архив погоды в соседних городах и на ближайших метеорологических станциях:

Погода в Ньюдегейте (Западная Австралия, Австралия) (35 км)
Погода в Катаннинге (Западная Австралия, Австралия) (103 км)
Погода в Джакапе (Западная Австралия, Австралия) (105 км)
Погода в Уондеринге (Западная Австралия, Австралия) (174 км)
Погода в Хоптауне (Западная Австралия, Австралия) (180 км)
Погода в Кандердине (Западная Австралия, Австралия) (202 км)
Погода в Роки Галли (Западная Австралия, Австралия) (211 км)
Погода в Олбани (Западная Австралия, Австралия) (212 км)
Погода в Мунглинап Запад (Западная Австралия, Австралия) (214 км)
Погода в Колли Восток (Западная Австралия, Австралия) (215 км)

Пояснения к столбцам:

Ветер - указаны скорость ветра в м/с - средняя за 10 мин, порывы в срок и между сроками (в фигурных скобках) и направление, откуда дует ветер: С - северный, СВ - северо-восточный, В - восточный, ЮВ - юго-восточный, Ю - южный, ЮЗ - юго-западный, З - западный, СЗ - северо-западный.
Видимость - горизонтальная дальность видимости в метрах или километрах. При видимости от 1 до 10 км при отсутствии осадков обычно наблюдается дымка, при ухудшении видимости до 1 км и менее - туман. В сухую погоду видимость может ухудшаться дымом, пылью или мглою.
Явления - указаны атмосферные явления, наблюдавшиеся в срок или в последний час перед сроком; фигурными скобками обозначены явления, наблюдавшиеся между сроками (за 1-3 часа до срока); квадратными скобками обозначены град или гололедные отложения с указанием их диаметра в мм.
Облачность - указаны через наклонную черту общая и нижняя облачность в баллах и высота нижней границы облаков в метрах; квадратными скобками обозначены формы облаков: Ci - перистые, Cs - перисто-слоистые, Cc - перисто-кучевые, Ac - высококучевые, As - высокослоистые, Sc - слоисто-кучевые, Ns - слоисто-дождевые, Cu - кучевые, Cb - кучево-дождевые. Подробнее классификацию облаков см. в Атласе облаков (PDF).
T - Температура воздуха - температура, измеренная на высоте 2 м над землей.
Td - Температура точки росы - температура, при понижении до которой содержащийся в воздухе водяной пар достигнет насыщения.
f - Относительная влажность воздуха - влажноcть воздуха, измеренная на высоте 2 м над землей.
Te - Эффективная температура - температура, которую ощущает одетый по сезону человек в тени. Характеристика душности погоды. При расчете учитывается влияние влажности воздуха и скорости ветра на теплоощущения человека.
Tes - Эффективная температура на солнце - температура, которую ощущает человек, с поправкой на солнечный нагрев. Характеристика знойности погоды. Зависит от высоты солнца над горизонтом, облачности и скорости ветра. Ночью, в пасмурную погоду, а также при ветре 12 м/с и более поправка равна нулю.
P - Атмосферное давление - приведенное к уровню моря атмосферное давление.
Po - Атмосферное давление - измеренное на уровне метеостанции атмосферное давление.
Tmin - Минимальная температура - минимум температуры воздуха на высоте 2 м над землей.
Tmax - Максимальная температура - максимум температуры воздуха на высоте 2 м над землей.
R - Количество осадков - Количество выпавших осадков за период времени, мм. При наведении курсора мыши на число - период времени, за который выпало указанное количество осадков.
R24 - Количество осадков - Количество выпавших осадков за 24 часа, мм.
S - Снежный покров - Высота снежного покрова, см. При наведении курсора мыши на число - состояние снежного покрова и степень покрытия местности в баллах.